CW7171 Storuman SE current weather conditions

sailwx.info

Wind from 327 at 2 knots gusting 10

Air temperature 13.9° C
Dewpoint 7.0° C

Last reported at 2020-Aug-09 08:06 UTC.
Time now 2020-Aug-09 08:52 UTC

Location: N 65°06' E 017°08'.
View on Google Maps.

See reports from other nearby stations

  
Tides and Currents Weather Stations Pressure Air Temp Water Temp Dewpoint Dewpoint Depression Visibility Wind Speed Wind Dir Waves Ship Positions
date/time (UTC)wind fromknots sea level pressurealtimeterstation pressurevisibilityair tempwater tempwave heightnotes
2020-Aug-09 08:06 327 2 gusting 10 13.9
2020-Aug-09 08:01 309 2 gusting 7 13.9
2020-Aug-09 07:56 314 2 gusting 6 13.3
2020-Aug-09 07:51 327 2 gusting 5 13.3
2020-Aug-09 07:46 331 1 gusting 4 13.3
2020-Aug-09 07:41 307 1 gusting 10 13.3
2020-Aug-09 07:36 324 1 gusting 6 13.3
2020-Aug-09 07:31 330 2 gusting 6 13.3
2020-Aug-09 07:26 326 1 gusting 6 13.3
2020-Aug-09 07:21 315 2 gusting 6 12.8
2020-Aug-09 07:16 351 2 gusting 7 12.8
2020-Aug-09 07:11 309 2 gusting 8 12.8
2020-Aug-09 07:06 335 2 gusting 8 12.8
2020-Aug-09 07:01 302 1 gusting 4 12.8
2020-Aug-09 06:56 319 1 gusting 5 12.8
2020-Aug-09 06:51 319 2 gusting 6 12.8
2020-Aug-09 06:46 320 2 gusting 5 12.2
2020-Aug-09 06:41 303 2 gusting 6 12.2
2020-Aug-09 06:36 317 2 gusting 5 12.2
2020-Aug-09 06:31 322 2 gusting 6 12.2
2020-Aug-09 06:26 340 2 gusting 6 12.2
2020-Aug-09 06:21 306 1 gusting 6 12.2
2020-Aug-09 06:16 322 1 gusting 4 12.2
2020-Aug-09 06:11 303 3 gusting 6 12.2
2020-Aug-09 06:06 297 2 gusting 8 12.2
2020-Aug-09 06:01 316 2 gusting 6 12.2
2020-Aug-09 05:56 323 1 gusting 4 12.2
2020-Aug-09 05:51 316 1 gusting 2 11.7
2020-Aug-09 05:46 326 1 gusting 4 11.7
2020-Aug-09 05:41 282 2 gusting 6 11.7
2020-Aug-09 05:36 288 2 gusting 7 11.7
2020-Aug-09 05:31 282 2 gusting 6 11.7
2020-Aug-09 05:26 336 0 gusting 2 11.7
2020-Aug-09 05:21 281 1 gusting 6 11.7
2020-Aug-09 05:16 296 1 gusting 5 11.7
2020-Aug-09 05:11 290 1 gusting 6 11.1
2020-Aug-09 05:06 299 2 gusting 6 11.1
2020-Aug-09 05:01 286 2 gusting 6 11.1
2020-Aug-09 04:56 296 1 gusting 4 11.1
2020-Aug-09 04:51 277 1 gusting 4 11.1
2020-Aug-09 04:47 322 1 gusting 5 11.1
2020-Aug-09 04:41 282 1 gusting 10 11.1
2020-Aug-09 04:36 289 2 gusting 6 11.1
2020-Aug-09 04:31 288 2 gusting 7 11.1
2020-Aug-09 04:26 292 1 gusting 4 10.6
2020-Aug-09 04:21 281 2 gusting 5 10.6
2020-Aug-09 04:16 285 2 gusting 5 10.6
2020-Aug-09 04:11 289 0 gusting 7 10.6
2020-Aug-09 04:06 298 1 gusting 7 10.6
2020-Aug-09 04:01 309 1 gusting 4 10.6
2020-Aug-09 03:56 316 1 gusting 10 10.6
2020-Aug-09 03:51 290 1 gusting 6 10.6
2020-Aug-09 03:46 292 1 gusting 6 10.6
2020-Aug-09 03:41 307 2 gusting 10 10.0
2020-Aug-09 03:36 311 2 gusting 6 10.0
2020-Aug-09 03:31 297 2 gusting 7 10.0
2020-Aug-09 03:26 296 1 gusting 6 10.0
2020-Aug-09 03:21 283 1 gusting 10 10.0
2020-Aug-09 03:16 285 0 gusting 2 10.0
2020-Aug-09 03:11 281 2 gusting 6 10.0
2020-Aug-09 03:06 285 2 gusting 10 10.0
2020-Aug-09 03:01 325 1 gusting 2 10.0
2020-Aug-09 02:56 286 0 gusting 2 10.0
2020-Aug-09 02:51 281 1 gusting 5 10.0
2020-Aug-09 02:46 295 1 gusting 6 10.0
2020-Aug-09 02:41 307 1 gusting 5 10.0
2020-Aug-09 02:36 271 1 gusting 5 10.0
2020-Aug-09 02:31 302 2 gusting 6 10.0
2020-Aug-09 02:26 286 1 gusting 2 10.6
2020-Aug-09 02:21 296 1 gusting 4 10.6
2020-Aug-09 02:16 290 2 gusting 7 10.6
2020-Aug-09 02:11 273 2 gusting 6 10.6
2020-Aug-09 02:06 292 0 gusting 8 10.6
2020-Aug-09 02:01 294 2 gusting 6 10.6
2020-Aug-09 01:56 298 0 gusting 2 10.6
2020-Aug-09 01:51 269 2 gusting 6 10.6
2020-Aug-09 01:46 304 2 gusting 6 10.6
2020-Aug-09 01:41 303 3 gusting 8 10.6
2020-Aug-09 01:36 259 2 gusting 10 10.0
2020-Aug-09 01:31 282 2 gusting 6 10.0
2020-Aug-09 01:26 273 2 gusting 6 10.0
2020-Aug-09 01:21 273 1 gusting 4 10.6
2020-Aug-09 01:16 272 2 gusting 6 10.6
2020-Aug-09 01:11 272 1 gusting 2 10.6
2020-Aug-09 01:06 274 0 gusting 2 10.6
2020-Aug-09 01:01 272 1 gusting 2 10.6
2020-Aug-09 00:56 284 2 gusting 4 10.6
2020-Aug-09 00:51 261 0 gusting 2 11.1
2020-Aug-09 00:46 297 0 gusting 5 11.1
2020-Aug-09 00:41 294 1 gusting 4 11.1
2020-Aug-09 00:36 296 2 gusting 7 11.1
2020-Aug-09 00:31 287 2 gusting 6 11.1
2020-Aug-09 00:26 281 2 gusting 8 11.1
2020-Aug-09 00:21 286 2 gusting 10 11.1
2020-Aug-09 00:16 275 4 gusting 8 11.1
2020-Aug-09 00:11 262 2 gusting 6 11.1
2020-Aug-09 00:06 277 2 gusting 6 11.7
2020-Aug-09 00:01 258 2 gusting 6 11.7
2020-Aug-08 23:56 261 2 gusting 6 11.7
2020-Aug-08 23:51 264 2 gusting 6 11.7
2020-Aug-08 23:46 271 2 gusting 5 12.2
2020-Aug-08 23:41 296 2 gusting 6 12.2
2020-Aug-08 23:36 258 2 gusting 6 12.2
2020-Aug-08 23:31 281 2 gusting 8 12.8
2020-Aug-08 23:26 289 2 gusting 5 12.8
2020-Aug-08 23:21 285 2 gusting 5 12.8
2020-Aug-08 23:16 322 1 gusting 5 13.3
2020-Aug-08 23:11 318 1 gusting 6 13.3
2020-Aug-08 23:06 281 1 gusting 7 13.3
2020-Aug-08 23:01 268 1 gusting 4 12.8
2020-Aug-08 22:56 294 2 gusting 6 12.8
2020-Aug-08 22:51 291 2 gusting 6 12.8
2020-Aug-08 22:46 252 1 gusting 2 12.8
2020-Aug-08 22:41 255 0 gusting 1 12.8
2020-Aug-08 22:36 255 1 gusting 2 12.8
2020-Aug-08 22:31 236 1 gusting 2 12.2
2020-Aug-08 22:26 239 1 gusting 2 12.2
2020-Aug-08 22:21 243 1 gusting 2 12.2
2020-Aug-08 22:16 262 0 gusting 2 12.2
2020-Aug-08 22:11 271 12.2
2020-Aug-08 22:06 271 12.8
2020-Aug-08 22:01 271 12.8
2020-Aug-08 21:56 271 12.8
2020-Aug-08 21:51 271 12.8
2020-Aug-08 21:46 271 12.8
2020-Aug-08 21:41 254 0 gusting 1 12.8
2020-Aug-08 21:36 259 12.8
2020-Aug-08 21:31 284 0 gusting 2 12.8
2020-Aug-08 21:26 261 0 gusting 2 12.8
2020-Aug-08 21:21 265 1 gusting 2 12.8
2020-Aug-08 21:16 277 0 gusting 2 12.8
2020-Aug-08 21:11 278 12.8
2020-Aug-08 21:06 286 12.8
2020-Aug-08 21:01 286 0 gusting 1 12.8
2020-Aug-08 20:56 282 0 gusting 5 12.8
2020-Aug-08 20:51 273 1 gusting 5 12.8
2020-Aug-08 20:46 240 2 gusting 5 12.8
2020-Aug-08 20:41 254 1 gusting 2 12.8
2020-Aug-08 20:36 271 0 gusting 4 12.8
2020-Aug-08 20:31 262 1 gusting 5 13.3
2020-Aug-08 20:26 286 1 gusting 10 13.3
2020-Aug-08 20:21 235 1 gusting 2 13.3
2020-Aug-08 20:16 305 0 gusting 2 12.8
2020-Aug-08 20:11 323 0 gusting 2 12.8
2020-Aug-08 20:06 302 0 gusting 2 13.3
2020-Aug-08 20:01 273 0 gusting 6 13.3
2020-Aug-08 19:56 292 1 gusting 6 13.3
2020-Aug-08 19:51 302 1 gusting 4 13.3
2020-Aug-08 19:46 309 2 gusting 6 13.9
2020-Aug-08 19:41 011 1 gusting 10 13.9
2020-Aug-08 19:36 300 1 gusting 10 14.4
2020-Aug-08 19:31 296 3 gusting 10 14.4
2020-Aug-08 19:26 318 3 gusting 7 15.0
2020-Aug-08 19:21 347 2 gusting 6 15.6
2020-Aug-08 19:16 297 2 gusting 6 16.1
2020-Aug-08 19:11 312 2 gusting 8 16.1
2020-Aug-08 18:46 311 5 gusting 10 20.0
2020-Aug-08 18:41 282 3 gusting 6 20.0
2020-Aug-08 18:36 267 2 gusting 6 20.6
2020-Aug-08 18:31 277 1 gusting 7 20.6
2020-Aug-08 18:26 252 1 gusting 2 20.6
2020-Aug-08 18:21 246 1 gusting 4 20.6
2020-Aug-08 18:16 265 1 gusting 6 20.6
2020-Aug-08 18:11 236 2 gusting 7 20.6
2020-Aug-08 18:06 259 2 gusting 7 20.6
2020-Aug-08 18:01 249 1 gusting 4 20.6
2020-Aug-08 17:56 256 1 gusting 4 20.6
2020-Aug-08 17:51 286 1 gusting 5 20.6
2020-Aug-08 17:46 272 1 gusting 4 20.6
2020-Aug-08 17:41 253 0 gusting 2 20.6
2020-Aug-08 17:36 269 1 gusting 5 21.1
2020-Aug-08 17:31 268 1 gusting 2 21.1
2020-Aug-08 17:26 278 0 gusting 2 21.1
2020-Aug-08 17:21 254 0 gusting 2 21.1
2020-Aug-08 17:16 203 0 gusting 2 21.1
2020-Aug-08 17:11 270 0 gusting 2 21.1
2020-Aug-08 17:06 259 1 gusting 4 21.7
2020-Aug-08 17:01 252 0 gusting 2 21.7
2020-Aug-08 16:56 244 0 gusting 2 21.7
2020-Aug-08 16:51 270 1 gusting 4 22.2
2020-Aug-08 16:46 256 1 gusting 6 22.2
2020-Aug-08 16:41 256 2 gusting 6 22.2
2020-Aug-08 16:36 245 1 gusting 5 22.8
2020-Aug-08 16:31 224 2 gusting 6 22.8
2020-Aug-08 16:26 261 2 gusting 6 22.8
2020-Aug-08 16:21 223 1 gusting 6 22.8
2020-Aug-08 16:16 231 1 gusting 2 22.8
2020-Aug-08 16:11 218 1 gusting 5 22.8
2020-Aug-08 16:06 222 1 gusting 7 23.3
2020-Aug-08 16:01 215 2 gusting 7 23.3
2020-Aug-08 15:56 287 2 gusting 6 23.3
2020-Aug-08 15:51 298 2 gusting 4 23.3
2020-Aug-08 15:46 228 2 gusting 6 23.3
2020-Aug-08 15:41 254 3 gusting 6 23.3
2020-Aug-08 15:36 237 2 gusting 6 23.3
2020-Aug-08 15:31 285 3 gusting 6 23.3
2020-Aug-08 15:26 245 4 gusting 10 23.3
2020-Aug-08 15:21 285 0 gusting 2 23.3
2020-Aug-08 15:16 279 2 gusting 6 23.3
2020-Aug-08 15:11 278 2 gusting 5 23.3
2020-Aug-08 15:06 276 1 gusting 4 23.3
2020-Aug-08 15:01 269 0 gusting 5 23.3
2020-Aug-08 14:56 240 2 gusting 6 23.3
2020-Aug-08 14:51 292 0 gusting 6 23.9
2020-Aug-08 14:46 263 2 gusting 7 23.9
2020-Aug-08 14:41 282 4 gusting 8 23.9
2020-Aug-08 14:36 244 3 gusting 7 23.9
2020-Aug-08 14:31 244 3 gusting 8 23.9
2020-Aug-08 14:26 235 2 gusting 7 23.9
2020-Aug-08 14:21 228 1 gusting 2 23.3
2020-Aug-08 14:16 140 0 gusting 2 23.3
2020-Aug-08 14:11 209 0 gusting 4 23.3
2020-Aug-08 14:06 169 1 gusting 2 23.3
2020-Aug-08 14:01 179 2 gusting 6 23.9
2020-Aug-08 13:56 175 1 gusting 4 23.9
2020-Aug-08 13:51 169 1 gusting 5 23.3
2020-Aug-08 13:46 184 2 gusting 5 23.3
2020-Aug-08 13:41 235 1 gusting 7 23.3
2020-Aug-08 13:36 261 1 gusting 4 23.9
2020-Aug-08 13:31 161 3 gusting 7 23.9
2020-Aug-08 13:26 217 2 gusting 6 23.9
2020-Aug-08 13:21 251 2 gusting 6 24.4
2020-Aug-08 13:16 246 2 gusting 6 24.4
2020-Aug-08 13:11 220 2 gusting 6 24.4
2020-Aug-08 13:06 258 2 gusting 6 24.4
2020-Aug-08 13:01 284 3 gusting 6 23.9
2020-Aug-08 12:56 229 2 gusting 6 23.9
2020-Aug-08 12:51 191 4 gusting 7 23.9
2020-Aug-08 12:46 236 2 gusting 4 23.9
2020-Aug-08 12:41 221 2 gusting 6 23.9
2020-Aug-08 12:36 185 1 gusting 5 23.3
2020-Aug-08 12:31 247 0 gusting 4 23.3
2020-Aug-08 12:26 193 2 gusting 4 23.3
2020-Aug-08 12:21 245 1 gusting 6 23.9
2020-Aug-08 12:16 272 2 gusting 6 23.9
2020-Aug-08 12:11 257 1 gusting 5 23.3
2020-Aug-08 12:06 188 2 gusting 6 23.3
2020-Aug-08 12:01 211 2 gusting 5 23.3
2020-Aug-08 11:56 227 2 gusting 4 23.9
2020-Aug-08 11:51 177 4 gusting 6 24.4
2020-Aug-08 11:46 250 1 gusting 6 24.4
2020-Aug-08 11:41 273 3 gusting 8 23.9
2020-Aug-08 11:36 218 1 gusting 4 23.3
2020-Aug-08 11:31 189 0 gusting 2 23.3
2020-Aug-08 11:26 234 1 gusting 2 23.3
2020-Aug-08 11:21 259 0 gusting 2 23.3
2020-Aug-08 11:16 195 1 gusting 4 23.3
2020-Aug-08 11:11 216 0 gusting 2 23.3
2020-Aug-08 11:06 213 1 gusting 4 23.3
2020-Aug-08 11:01 220 1 gusting 4 23.3
2020-Aug-08 10:56 146 2 gusting 5 23.3
2020-Aug-08 10:51 161 1 gusting 6 24.4
2020-Aug-08 10:46 178 4 gusting 10 25.0
2020-Aug-08 10:41 186 4 gusting 7 25.0
2020-Aug-08 10:36 121 0 gusting 4 24.4
2020-Aug-08 10:31 125 2 gusting 5 23.9
2020-Aug-08 10:26 123 1 gusting 2 23.3
2020-Aug-08 10:21 196 1 gusting 6 23.3
2020-Aug-08 10:16 057 2 gusting 6 23.9
2020-Aug-08 10:11 098 2 gusting 7 23.9
2020-Aug-08 10:06 138 3 gusting 6 24.4
2020-Aug-08 10:01 119 0 gusting 6 24.4
2020-Aug-08 09:56 204 1 gusting 4 24.4
2020-Aug-08 09:51 112 4 gusting 7 23.9
2020-Aug-08 09:46 228 1 gusting 6 23.9
2020-Aug-08 09:41 090 1 gusting 5 23.3
2020-Aug-08 09:36 267 1 gusting 2 23.3
2020-Aug-08 09:31 150 1 gusting 4 23.3
2020-Aug-08 09:26 169 1 gusting 5 23.3
2020-Aug-08 09:21 086 1 gusting 4 22.8
2020-Aug-08 09:16 036 1 gusting 4 22.2
2020-Aug-08 09:11 062 2 gusting 2 21.7
2020-Aug-08 09:06 096 0 gusting 4 21.7
2020-Aug-08 09:01 146 0 gusting 1 21.7
2020-Aug-08 08:56 163 21.7
2020-Aug-08 08:51 163 21.7
2020-Aug-08 08:46 159 0 gusting 2 21.7
2020-Aug-08 08:41 203 1 gusting 4 22.2
2020-Aug-08 08:36 162 22.2
2020-Aug-08 08:31 156 1 gusting 2 22.2
2020-Aug-08 08:26 130 3 gusting 5 22.2
2020-Aug-08 08:21 182 1 gusting 2 22.2
2020-Aug-08 08:16 232 1 gusting 4 22.2
2020-Aug-08 08:11 156 0 gusting 1 21.7
2020-Aug-08 08:06 153 1 gusting 2 21.1
2020-Aug-08 08:01 067 21.1
2020-Aug-08 07:56 067 20.6
2020-Aug-08 07:51 067 20.0
2020-Aug-08 07:46 067 0 gusting 2 20.0
2020-Aug-08 07:41 067 0 gusting 1 20.0
2020-Aug-08 07:36 067 0 gusting 0 19.4
2020-Aug-08 07:31 067 19.4
2020-Aug-08 07:26 067 19.4
2020-Aug-08 07:21 067 19.4
2020-Aug-08 07:16 086 19.4
2020-Aug-08 07:11 086 19.4
2020-Aug-08 07:06 086 18.9
2020-Aug-08 07:01 086 18.9
2020-Aug-08 06:56 086 1 gusting 2 18.9
2020-Aug-08 06:51 086 18.9
2020-Aug-08 06:46 086 18.9
2020-Aug-08 06:41 086 18.9
2020-Aug-08 06:36 086 18.9
2020-Aug-08 06:31 086 18.9
2020-Aug-08 06:26 086 0 gusting 1 18.9
2020-Aug-08 06:21 088 0 gusting 1 18.9
2020-Aug-08 06:16 088 0 gusting 2 18.9
2020-Aug-08 06:11 054 0 gusting 2 18.9
2020-Aug-08 06:06 072 1 gusting 2 18.9
2020-Aug-08 06:01 078 1 gusting 2 19.4
2020-Aug-08 05:56 080 0 gusting 2 18.9
2020-Aug-08 05:51 080 1 gusting 2 18.3
2020-Aug-08 05:46 080 1 gusting 2 18.3
2020-Aug-08 05:41 081 1 gusting 2 18.3
2020-Aug-08 05:36 085 0 gusting 2 18.9
2020-Aug-08 05:31 085 1 gusting 2 18.9
2020-Aug-08 05:26 154 0 gusting 1 18.9
2020-Aug-08 05:21 154 18.9
2020-Aug-08 05:16 154 18.3
2020-Aug-08 05:11 154 17.8
2020-Aug-08 05:06 154 17.8
2020-Aug-08 05:01 154 17.8
2020-Aug-08 04:56 154 17.8
2020-Aug-08 04:51 154 17.2
2020-Aug-08 04:46 154 17.2
2020-Aug-08 04:41 154 16.7
2020-Aug-08 04:36 154 16.1
2020-Aug-08 04:31 154 15.6
2020-Aug-08 04:26 154 15.0
2020-Aug-08 04:21 154 14.4
2020-Aug-08 04:16 154 14.4
2020-Aug-08 04:11 154 14.4
2020-Aug-08 04:06 154 14.4
2020-Aug-08 04:01 154 0 gusting 1 14.4
2020-Aug-08 03:56 154 0 gusting 2 14.4
2020-Aug-08 03:51 154 14.4
2020-Aug-08 03:46 154 0 gusting 1 14.4
2020-Aug-08 03:41 154 0 gusting 1 14.4
2020-Aug-08 03:36 154 0 gusting 1 13.9
2020-Aug-08 03:31 154 13.9
2020-Aug-08 03:26 154 14.4
2020-Aug-08 03:21 154 0 gusting 1 14.4
2020-Aug-08 03:16 154 0 gusting 1 14.4
2020-Aug-08 03:11 154 14.4
2020-Aug-08 03:06 154 0 gusting 1 14.4
2020-Aug-08 03:01 154 15.0
2020-Aug-08 02:56 154 0 gusting 1 15.0
2020-Aug-08 02:51 154 14.4
2020-Aug-08 02:46 154 14.4
2020-Aug-08 02:41 154 15.0
2020-Aug-08 02:36 154 15.0
2020-Aug-08 02:31 154 15.0
2020-Aug-08 02:26 154 15.0
2020-Aug-08 02:21 154 15.0
2020-Aug-08 02:16 154 15.0
2020-Aug-08 02:11 154 15.0
2020-Aug-08 02:06 154 0 gusting 2 15.0
2020-Aug-08 02:01 155 0 gusting 1 15.0
2020-Aug-08 01:56 155 15.0
2020-Aug-08 01:51 159 0 gusting 1 14.4
2020-Aug-08 01:46 159 14.4
2020-Aug-08 01:41 159 0 gusting 1 14.4
2020-Aug-08 01:36 159 0 gusting 1 14.4
2020-Aug-08 01:31 159 0 gusting 1 13.9
2020-Aug-08 01:26 159 0 gusting 1 13.9
2020-Aug-08 01:21 159 0 gusting 1 13.9
2020-Aug-08 01:16 159 0 gusting 1 13.9
2020-Aug-08 01:11 159 0 gusting 1 13.9
2020-Aug-08 01:06 159 0 gusting 1 13.9
2020-Aug-08 01:01 159 13.9
2020-Aug-08 00:56 159 13.9
2020-Aug-08 00:51 159 0 gusting 1 14.4
2020-Aug-08 00:46 160 1 gusting 2 13.9
2020-Aug-08 00:41 165 0 gusting 0 13.9
2020-Aug-08 00:36 165 14.4
2020-Aug-08 00:31 165 0 gusting 2 14.4
2020-Aug-08 00:26 165 15.0
2020-Aug-08 00:21 110 0 gusting 2 15.0
2020-Aug-08 00:16 098 0 gusting 2 15.6
2020-Aug-08 00:11 099 1 gusting 5 15.0
2020-Aug-08 00:06 117 0 gusting 1 15.0
2020-Aug-08 00:01 117 0 gusting 4 15.0
2020-Aug-07 23:56 155 0 gusting 1 15.0
2020-Aug-07 23:51 155 15.6
2020-Aug-07 23:46 155 15.6
2020-Aug-07 23:41 155 16.1
2020-Aug-07 23:36 155 16.1
2020-Aug-07 23:31 155 16.7
2020-Aug-07 23:26 156 16.7
2020-Aug-07 23:21 156 16.7
2020-Aug-07 23:16 156 17.2
2020-Aug-07 23:11 155 16.7
2020-Aug-07 23:06 156 16.7
2020-Aug-07 23:01 155 0 gusting 1 16.1
2020-Aug-07 22:56 155 16.1
2020-Aug-07 22:51 155 16.1
2020-Aug-07 22:46 155 16.1
2020-Aug-07 22:41 155 16.1
2020-Aug-07 22:36 155 16.1
2020-Aug-07 22:31 155 16.1
2020-Aug-07 22:26 155 15.6
2020-Aug-07 22:21 155 15.6
2020-Aug-07 22:16 155 15.6
2020-Aug-07 22:11 155 15.6
2020-Aug-07 22:06 155 15.0
2020-Aug-07 22:01 155 15.6
2020-Aug-07 21:56 155 15.6
2020-Aug-07 21:51 155 15.6
2020-Aug-07 21:46 155 16.1
2020-Aug-07 21:41 156 16.1
2020-Aug-07 21:36 155 16.7
2020-Aug-07 21:31 155 16.7
2020-Aug-07 21:26 156 16.7
2020-Aug-07 21:21 156 16.7
2020-Aug-07 21:16 156 17.2
2020-Aug-07 21:11 155 17.2
2020-Aug-07 21:06 156 0 gusting 1 17.2
2020-Aug-07 21:01 155 17.8
2020-Aug-07 20:56 155 0 gusting 1 17.8
2020-Aug-07 20:51 155 0 gusting 1 17.8
2020-Aug-07 20:46 155 0 gusting 1 17.8
2020-Aug-07 20:41 155 17.8
2020-Aug-07 20:36 155 0 gusting 1 17.8
2020-Aug-07 20:31 154 0 gusting 2 18.3
2020-Aug-07 20:26 154 0 gusting 1 18.3
2020-Aug-07 20:21 154 0 gusting 1 18.3
2020-Aug-07 20:16 154 0 gusting 2 18.3
2020-Aug-07 20:11 155 1 gusting 2 17.8
2020-Aug-07 20:06 160 1 gusting 2 17.8
2020-Aug-07 20:01 160 0 gusting 1 18.3
2020-Aug-07 19:56 160 0 gusting 1 18.3
2020-Aug-07 19:51 160 0 gusting 1 18.3
2020-Aug-07 19:46 160 1 gusting 2 18.3
2020-Aug-07 19:41 146 0 gusting 1 18.3
2020-Aug-07 19:36 146 18.3
2020-Aug-07 19:31 146 18.9
2020-Aug-07 19:26 146 18.9
2020-Aug-07 19:21 146 18.9
2020-Aug-07 19:16 146 19.4
2020-Aug-07 19:11 146 19.4
2020-Aug-07 19:06 146 19.4
2020-Aug-07 19:01 146 19.4
2020-Aug-07 18:56 146 20.0
2020-Aug-07 18:51 146 20.0
2020-Aug-07 18:46 146 20.6
2020-Aug-07 18:41 146 20.6
2020-Aug-07 18:36 146 0 gusting 1 21.1
2020-Aug-07 18:31 146 0 gusting 4 21.1
2020-Aug-07 18:26 151 0 gusting 2 21.7
2020-Aug-07 18:21 165 21.7
2020-Aug-07 18:16 146 0 gusting 4 21.7
2020-Aug-07 18:11 200 1 gusting 4 21.7
2020-Aug-07 18:06 172 21.7
2020-Aug-07 18:01 200 0 gusting 2 22.2
2020-Aug-07 17:56 173 0 gusting 1 22.2
2020-Aug-07 17:51 173 22.2
2020-Aug-07 17:46 173 0 gusting 2 22.2
2020-Aug-07 17:41 173 0 gusting 1 22.2
2020-Aug-07 17:36 173 0 gusting 1 22.2
2020-Aug-07 17:31 173 22.2
2020-Aug-07 17:26 173 0 gusting 1 22.2
2020-Aug-07 17:21 173 22.2
2020-Aug-07 17:16 173 0 gusting 1 22.8
2020-Aug-07 17:11 173 23.3
2020-Aug-07 17:06 173 0 gusting 1 23.3
2020-Aug-07 17:01 173 1 gusting 2 23.3
2020-Aug-07 16:56 221 23.3
2020-Aug-07 16:51 188 23.3
2020-Aug-07 16:46 190 0 gusting 2 23.3
2020-Aug-07 16:41 216 1 gusting 4 23.3
2020-Aug-07 16:36 233 1 gusting 4 23.3
2020-Aug-07 16:31 208 2 gusting 4 23.3
2020-Aug-07 16:26 217 1 gusting 4 23.3
2020-Aug-07 16:21 180 23.3
2020-Aug-07 16:16 220 2 gusting 6 23.9
2020-Aug-07 16:11 181 2 gusting 5 23.9
2020-Aug-07 16:06 235 2 gusting 5 23.9
2020-Aug-07 16:01 154 1 gusting 4 23.9
2020-Aug-07 15:56 155 2 gusting 5 23.9
2020-Aug-07 15:51 215 2 gusting 5 23.9
2020-Aug-07 15:46 185 1 gusting 4 23.3
2020-Aug-07 15:41 209 0 gusting 6 23.3
2020-Aug-07 15:36 181 1 gusting 5 23.3
2020-Aug-07 15:31 178 0 gusting 2 23.9
2020-Aug-07 15:26 178 0 gusting 4 23.9
2020-Aug-07 15:21 207 0 gusting 2 23.9
2020-Aug-07 15:16 227 1 gusting 5 23.9
2020-Aug-07 15:11 184 1 gusting 4 23.9
2020-Aug-07 15:06 204 3 gusting 6 23.9
2020-Aug-07 15:01 261 0 gusting 2 24.4
2020-Aug-07 14:56 161 1 gusting 5 23.9
2020-Aug-07 14:51 182 2 gusting 6 23.9
2020-Aug-07 14:46 178 0 gusting 4 24.4
2020-Aug-07 14:41 211 1 gusting 4 24.4
2020-Aug-07 14:36 210 0 gusting 4 25.0
2020-Aug-07 14:31 158 0 gusting 7 25.0
2020-Aug-07 14:26 255 0 gusting 7 25.6
2020-Aug-07 14:21 272 4 gusting 6 25.6
2020-Aug-07 14:16 157 0 gusting 4 25.6
2020-Aug-07 14:11 232 1 gusting 5 25.6
2020-Aug-07 14:06 221 4 gusting 8 25.6
2020-Aug-07 14:01 111 1 gusting 6 25.6
2020-Aug-07 13:56 193 2 gusting 7 25.6
2020-Aug-07 13:51 257 2 gusting 7 25.6
2020-Aug-07 13:46 263 4 gusting 6 25.6
2020-Aug-07 13:41 195 2 gusting 6 25.0
2020-Aug-07 13:36 216 1 gusting 6 25.0
2020-Aug-07 13:31 189 1 gusting 5 25.0
2020-Aug-07 13:26 252 1 gusting 4 25.0
2020-Aug-07 13:21 268 2 gusting 5 25.0
2020-Aug-07 13:16 231 2 gusting 6 25.0
2020-Aug-07 13:11 253 2 gusting 6 25.6
2020-Aug-07 13:06 173 2 gusting 10 25.6
2020-Aug-07 13:01 197 1 gusting 8 25.0
2020-Aug-07 12:56 239 4 gusting 7 25.0
2020-Aug-07 12:51 270 1 gusting 6 25.0
2020-Aug-07 12:46 236 2 gusting 5 24.4
2020-Aug-07 12:41 217 4 gusting 8 24.4
2020-Aug-07 12:36 165 2 gusting 6 24.4
2020-Aug-07 12:31 198 2 gusting 8 24.4
2020-Aug-07 12:26 283 2 gusting 8 24.4
2020-Aug-07 12:21 210 2 gusting 6 24.4
2020-Aug-07 12:16 164 1 gusting 5 24.4
2020-Aug-07 12:11 270 2 gusting 6 24.4
2020-Aug-07 12:06 206 2 gusting 7 24.4
2020-Aug-07 12:01 151 4 gusting 6 24.4
2020-Aug-07 11:56 184 24.4
2020-Aug-07 11:51 216 0 gusting 2 24.4
2020-Aug-07 11:46 285 23.9
2020-Aug-07 11:41 288 2 gusting 5 23.3
2020-Aug-07 11:36 238 0 gusting 1 23.3
2020-Aug-07 11:31 238 1 gusting 2 23.3
2020-Aug-07 11:26 238 1 gusting 2 23.3
2020-Aug-07 11:21 172 1 gusting 2 23.9
2020-Aug-07 11:16 162 2 gusting 5 24.4
2020-Aug-07 11:11 262 2 gusting 4 23.9
2020-Aug-07 11:06 263 2 gusting 5 23.9
2020-Aug-07 11:01 288 1 gusting 4 23.9
2020-Aug-07 10:56 088 3 gusting 5 23.3
2020-Aug-07 10:51 212 1 gusting 4 23.3
2020-Aug-07 10:46 141 2 gusting 6 23.3
2020-Aug-07 10:41 180 0 gusting 2 23.3
2020-Aug-07 10:36 172 1 gusting 2 23.9
2020-Aug-07 10:31 186 2 gusting 4 23.3
2020-Aug-07 10:26 150 2 gusting 5 23.3
2020-Aug-07 10:21 122 1 gusting 4 22.8
2020-Aug-07 10:16 089 2 gusting 5 22.8
2020-Aug-07 10:11 141 2 gusting 4 22.2
2020-Aug-07 10:06 172 0 gusting 4 22.2
2020-Aug-07 10:01 159 1 gusting 5 22.2
2020-Aug-07 09:56 195 1 gusting 4 22.2
2020-Aug-07 09:51 234 1 gusting 6 22.2
2020-Aug-07 09:46 183 2 gusting 5 21.7
2020-Aug-07 09:41 135 2 gusting 5 21.7
2020-Aug-07 09:36 208 0 gusting 4 21.1
2020-Aug-07 09:31 254 1 gusting 2 21.1
2020-Aug-07 09:26 233 0 gusting 2 21.1
2020-Aug-07 09:21 229 1 gusting 2 21.1
2020-Aug-07 09:16 231 0 gusting 2 21.1
2020-Aug-07 09:11 227 0 gusting 2 21.1
2020-Aug-07 09:06 221 2 gusting 4 21.7
2020-Aug-07 09:01 185 1 gusting 5 21.7
2020-Aug-07 08:56 246 2 gusting 6 21.1
2020-Aug-07 08:51 228 2 gusting 5 21.7
2020-Aug-07 08:46 145 3 gusting 5 21.7
2020-Aug-07 08:41 157 1 gusting 2 21.1
2020-Aug-07 08:36 282 2 gusting 2 21.1
2020-Aug-07 08:31 166 3 gusting 6 21.1
2020-Aug-07 08:26 290 1 gusting 5 20.6
2020-Aug-07 08:21 247 2 gusting 5 20.6
2020-Aug-07 08:16 199 0 gusting 1 20.6
2020-Aug-07 08:11 198 0 gusting 1 20.0
2020-Aug-07 08:06 198 19.4
2020-Aug-07 08:01 198 0 gusting 1 19.4